Location: Fisheating Creek Campgrounds
(26.9333°N, 81.3167°W)
Time: 17:54:46
(UTC-04:00)

Daily predictions for brighter satellites

Satellite Brightness Start Highest point End
(mag) Time Altitude Azimuth Time Altitude Azimuth Time Altitude Azimuth
Atlas 2A Centaur Rocket 3.6 20:05:09 10° SW 20:09:13 59° SSE 20:28:28 10° ENE
Mugunghwa Rocket 4.3 20:24:47 10° WSW 20:31:28 68° SSE 20:38:57 10° E
FengYun 1-2 T 4.4 20:27:00 10° SSE 20:32:39 88° WSW 20:38:18 10° NNW
SL-16 R/B 4.3 20:35:27 10° NE 20:36:21 10° ENE 20:37:15 10° ENE
IRAS Rocket 4.4 20:31:08 10° S 20:36:36 80° WSW 20:42:09 10° NNW
FUSE 4.0 20:36:10 10° W 20:41:27 71° S 20:46:45 10° E
Timation 2 Rocket 3.9 20:36:47 10° S 20:42:35 57° ESE 20:48:27 10° NNE
Cosmos 1656 4.4 20:37:58 10° NNW 20:43:25 56° WSW 20:48:46 10° S
Cosmos 2278 4.2 20:37:50 10° NNW 20:43:28 65° WSW 20:49:04 10° S
Thor Agena Rocket 3.7 20:38:23 10° NNE 20:43:28 51° E 20:48:28 10° S
Gblst 52 Del rocket 4.2 20:38:31 10° NW 20:44:03 80° SW 20:49:35 10° SE
Cosmos 44 Rocket 3.5 20:39:00 10° NNW 20:44:13 89° WSW 20:49:24 10° SSE
Cosmos 2016 Rocket 4.0 20:43:21 10° S 20:49:26 88° W 20:55:35 10° N
Cosmos 468 Rocket 4.1 20:44:32 10° S 20:49:42 57° ESE 20:54:50 10° NNE
GPS 2-05 Rocket1 2.6 20:46:32 10° WSW 20:49:47 72° SSE 20:53:06 10° ENE
Cosmos 2061 Rocket 4.4 20:44:32 10° SSW 20:50:55 71° W 20:57:14 10° N
Cosmos 1763 Rocket 4.1 20:49:26 10° SSE 20:54:15 36° E 20:59:03 10° NE
Cosmos 304 Rocket 4.3 20:49:38 10° SSW 20:54:24 65° WNW 20:59:11 10° N
Cosmos 2360 4.3 20:53:41 10° NNW 20:59:21 64° ENE 21:04:59 10° SSE
Cosmos 841 Rocket 4.4 20:56:29 10° SSE 21:00:48 27° E 21:05:10 10° NE
Okean 3 4.1 20:57:18 10° SSW 21:01:32 61° W 21:05:46 10° N
Cosmos 1725 Rocket 4.0 20:56:37 10° S 21:02:47 85° E 21:08:58 10° N
Cosmos 1697 Rocket 3.3 20:58:44 10° NNW 21:04:16 59° WSW 21:09:47 10° S
deb Kosmos-1763 4.0 21:00:52 10° SSW 21:04:33 83° ESE 21:08:15 10° NNE
DELTA 2 R/B (1) 4.2 21:00:28 10° SSW 21:05:23 33° SE 21:10:19 10° ENE
Cosmos 1378 Rocket 3.5 21:01:11 10° S 21:05:30 87° E 21:09:48 10° N
Cosmos 1500 3.2 21:04:05 10° N 21:07:56 86° W 21:11:48 10° S
GPS 2-12 Rocket1 4.1 21:04:03 10° WSW 21:08:07 30° S 21:10:51 17° SE
Cosmos 1975 Rocket 3.5 21:06:40 10° SSE 21:10:42 39° E 21:14:44 10° NNE
ERS-2 2.6 21:09:38 18° SE 21:12:01 41° ENE 21:15:30 10° N
Delta 7925 Rocket 3.1 21:07:20 10° W 21:12:16 83° S 21:15:49 17° E
SJ-6B 3.3 21:09:49 10° S 21:13:28 56° W 21:17:08 10° NNW
Atlas Centaur 2 1.4 21:09:24 10° WNW 21:13:33 63° N 21:16:08 18° E
USA 186 1.6 21:11:57 14° SSE 21:14:33 81° E 21:17:52 10° N
Tsikada Rocket 4.1 21:08:14 10° N 21:14:35 60° E 21:20:46 10° SSE
Meteor 1-19 Rocket 4.5 21:10:47 10° SSE 21:16:28 52° E 21:22:11 10° NNE
USA 234 3.3 21:11:14 10° NE 21:17:49 84° NW 21:24:23 10° SW
Cosmos 1980 Rocket 2.2 21:12:50 10° NNW 21:18:32 84° WSW 21:23:47 12° SSE
IUS-9 SRM-1 3.4 21:15:11 10° W 21:18:34 85° S 21:33:54 10° E
Okean 1 Rocket 3.0 21:16:15 10° N 21:20:34 68° E 21:23:55 16° SSE
Cosmos 1975 3.2 21:18:20 10° N 21:22:11 44° E 21:24:04 25° SE
Cosmos 1666 3.4 21:18:54 10° NNE 21:22:29 35° E 21:23:46 27° ESE
Cosmos 292 Rocket 4.0 21:20:44 10° S 21:25:15 44° ESE 21:29:45 10° NNE
ATLAS CENTAUR R/B 4.3 21:22:27 10° WSW 21:27:10 54° NW 21:40:27 10° NNE
GPS 2-04 Rocket1 2.7 21:25:12 10° WNW 21:29:23 84° SSW 21:31:18 32° ESE
SAR-Lupe-3 4.4 21:26:29 10° NNE 21:30:04 73° ESE 21:32:53 15° S
CENTAUR R/B 2.3 21:27:56 10° SSW 21:33:33 88° WNW 21:39:57 10° NNE
Iridium 2 4.0 21:33:21 35° SE 21:34:26 46° E 21:38:06 10° NNE
Cosmos 1743 2.8 21:34:04 10° N 21:37:48 53° E 21:38:42 42° SE
ATLAS CENTAUR R/B 2.8 21:35:36 10° NW 21:39:59 39° WSW 21:43:31 15° S
Cosmos 2233 Rocket 4.1 21:34:11 10° S 21:40:17 75° W 21:46:29 10° N
Cosmos 1814 Rocket 4.1 21:35:29 10° SSW 21:40:41 78° WNW 21:45:59 10° NNE
Cosmos 1898 Rocket 3.6 21:39:52 10° N 21:45:07 60° ENE 21:47:11 35° SE
Meteor 1-12 Rocket 4.3 21:40:11 10° N 21:46:10 74° E 21:49:38 27° SSE
Resurs 01 Rocket 1.9 21:44:55 22° S 21:47:39 66° WSW 21:52:02 10° NNW
Cosmos 1833 4.1 21:42:04 10° SSW 21:47:48 76° ESE 21:53:30 10° NNE
H-2A R/B 3.1 21:48:25 24° E 21:48:50 25° ENE 21:52:51 10° NNE
Meteor 2-4 Rocket 3.5 21:46:17 20° S 21:50:05 73° E 21:55:35 10° NNE
ARGOS 3.6 21:56:26 38° ESE 21:57:30 43° ENE 22:02:35 10° N
Cosmos 990 Rocket 4.1 21:52:38 10° N 21:57:45 55° ENE 21:58:52 46° ESE
NOAA 11 4.3 21:58:22 27° S 22:01:24 72° WSW 22:06:51 10° NNW
Skynet4D Del rocket 3.7 22:01:47 10° WSW 22:08:16 67° SSE 22:09:45 49° ESE
Cosmos 2322 Rocket 2.1 22:05:10 10° NNW 22:10:47 79° ENE 22:12:02 55° SE
Cosmos 1242 Rocket 3.5 22:11:30 10° NNW 22:14:56 43° W 22:15:05 42° WSW
DMSP B5D2-2 4.5 22:11:51 10° NNE 22:16:13 45° ENE 22:16:13 45° ENE
Cosmos 1340 Rocket 3.4 22:18:27 48° WSW 22:19:05 54° W 22:23:04 10° N
SL-16 R/B 2.2 22:15:18 10° NNW 22:20:58 77° WSW 22:22:11 56° S
MetOp-B 4.0 22:23:56 66° E 22:24:11 67° ENE 22:29:30 10° N
Cosmos 540 Rocket 3.6 22:22:41 35° SSW 22:24:50 70° WNW 22:30:00 10° N
Cosmos 1513 Rocket 4.3 22:23:27 46° S 22:25:26 89° W 22:31:37 10° N
Cosmos 2150 Rocket 3.9 22:20:32 10° N 22:25:51 72° ENE 22:25:55 71° E
Mugunghwa Rocket 4.3 22:20:13 10° W 22:27:28 89° S 22:30:25 43° E
FUSE 4.1 22:22:28 10° W 22:27:15 60° SW 22:27:15 60° SW
Cosmos 2034 Rocket 3.8 22:29:18 63° SSE 22:30:19 79° E 22:36:28 10° N
Cosmos 2219 4.4 22:34:42 30° NE 22:34:42 30° NE 22:37:50 10° NE
Cosmos 1464 Rocket 4.2 22:30:00 32° SSW 22:33:04 68° W 22:39:26 10° N
SPOT 5 4.3 22:37:55 25° NNE 22:37:55 25° NNE 22:40:13 10° N
Terra 4.1 22:38:20 14° NE 22:38:20 14° NE 22:39:28 10° NNE
Cosmos 1937 Rocket 4.0 22:36:16 10° NNW 22:41:13 50° WSW 22:41:34 49° WSW
Cosmos 1455 Rocket 3.9 22:40:46 10° NNW 22:44:21 47° WNW 22:44:21 47° WNW
Cosmos 2298 Rocket 4.3 22:41:51 10° NNW 22:46:59 59° W 22:46:59 59° W
DELTA 2 R/B (1) 4.1 22:46:12 10° WSW 22:51:39 57° NNW 22:53:20 40° NNE
Meteor 1-15 Rocket 4.4 22:47:42 10° N 22:52:34 65° NNE 22:52:34 65° NNE
Cosmos 2360 Rocket 2.4 22:54:12 10° NNW 22:58:58 65° NNW 22:58:58 65° NNW
BREEZE M DEB (TANK) 4.3 22:54:58 10° NW 22:58:38 28° N 22:58:38 28° N
Atlas Centaur 2 4.1 22:58:37 10° W 22:58:46 11° W 22:58:46 11° W
Cosmos 2219 Rocket 4.0 22:58:56 10° NNE 23:01:38 19° NE 23:01:38 19° NE
ERS-1 Rocket 3.8 23:07:42 46° NW 23:07:42 46° NW 23:11:32 10° NNW
SJ 16-02 3.5 23:18:33 10° NNW 23:20:26 25° NNW 23:20:26 25° NNW
H-2A R/B 3.9 23:29:02 23° W 23:29:02 23° W 23:32:06 10° NW
Cosmos 2333 Rocket 3.8 23:24:40 10° N 23:27:41 26° NNE 23:27:41 26° NNE
COSMOS 2428 3.9 23:27:13 10° NNW 23:30:38 37° N 23:30:38 37° N
CZ-4C R/B 3.4 23:28:59 10° NNW 23:35:47 51° NE 23:35:47 51° NE
Cosmos 2297 Rocket 4.3 23:44:24 19° NNE 23:44:24 19° NNE 23:45:57 10° NNE
Lacrosse 5 rocket 4.3 23:37:27 10° NW 23:38:05 14° NW 23:38:05 14° NW
Cosmos 2227 Rocket 4.1 23:47:43 22° NNE 23:47:43 22° NNE 23:49:39 10° NNE
